Tracking 23722 objects as of 15-Oct-2021
HD Live streaming from Space Station
objects crossing your sky now

GORIZONT 13

Track GORIZONT 13 now!
GORIZONT 13 is classified as:


NORAD ID: 17083
Int'l Code: 1986-090A
Perigee: 36,756.8 km
Apogee: 36,879.0 km
Inclination: 14.5 °
Period: 1,488.7 minutes
Semi major axis: 43188 km
RCS: 2.5139 m2 (large)
Launch date: November 18, 1986
Source: Commonwealth of Independent States (former USSR) (CIS)
Launch site: TYURATAM MISSILE AND SPACE COMPLEX (TTMTR)
aabbcc
Your satellite tracking list
Your tracking list is empty




NASA's NSSDC Master Catalog

Two Line Element Set (TLE):
1 17083U 86090A   21288.30257821 -.00000123  00000-0  00000-0 0  9998
2 17083  14.5455 340.8427 0014150 334.3671 206.6300  0.96726361102146
Source of the keplerian elements: AFSPC